| time (UTC) | temp F | wind direction | speed MPH | gust MPH | rain 1hr in | rain 24hr in | rain mn in | humidity % | barometer mb |
| 20260504173033 | 77 | 217 | 11.0 | 19.0 | 0.00 | 0.00 | 0.00 | 40 | 1013.6 |
| 20260504172522 | 76 | 245 | 10.0 | 19.0 | 0.00 | 0.00 | 0.00 | 41 | 1013.6 |
| 20260504172016 | 77 | 236 | 9.0 | 18.0 | 0.00 | 0.00 | 0.00 | 41 | 1013.8 |
| 20260504171509 | 76 | 210 | 10.0 | 16.0 | 0.00 | 0.00 | 0.00 | 41 | 1013.8 |
| 20260504170959 | 76 | 233 | 10.0 | 17.0 | 0.00 | 0.00 | 0.00 | 41 | 1013.9 |
| 20260504170454 | 76 | 187 | 9.0 | 17.0 | 0.00 | 0.00 | 0.00 | 41 | 1014.0 |
| 20260504160409 | 74 | 215 | 9.0 | 15.0 | 0.00 | 0.00 | 0.00 | 47 | 1015.1 |
| 20260504150848 | 71 | 219 | 7.0 | 15.0 | 0.00 | 0.00 | 0.00 | 50 | 1015.2 |
| 20260504150350 | 71 | 226 | 7.0 | 15.0 | 0.00 | 0.00 | 0.00 | 51 | 1015.2 |
| 20260504140332 | 68 | 193 | 10.0 | 21.0 | 0.00 | 0.00 | 0.00 | 54 | 1015.8 |
| 20260504130809 | 61 | 217 | 1.0 | 3.0 | 0.00 | 0.00 | 0.00 | 72 | 1015.9 |
| 20260504130302 | 60 | 193 | 1.0 | 4.0 | 0.00 | 0.00 | 0.00 | 74 | 1016.0 |
| 20260504120253 | 50 | 200 | 0.0 | 0.0 | 0.00 | 0.00 | 0.00 | 78 | 1015.7 |
| 20260504110448 | 0 | 0.0 | 0.0 | 0.00 | 0.00 | 0.00 | 1015.3 | ||
| 20260504100257 | 48 | 200 | 0.0 | 0.0 | 0.00 | 0.00 | 0.00 | 81 | 1015.1 |
| 20260504081754 | 52 | 200 | 0.0 | 0.0 | 0.00 | 0.00 | 0.00 | 75 | 1015.0 |
| 20260504081250 | 53 | 200 | 0.0 | 0.0 | 0.00 | 0.00 | 0.00 | 73 | 1015.0 |
| 20260504080752 | 53 | 200 | 0.0 | 0.0 | 0.00 | 0.00 | 0.00 | 73 | 1015.0 |
| 20260504080255 | 53 | 200 | 0.0 | 0.0 | 0.00 | 0.00 | 0.00 | 71 | 1015.0 |
| 20260504070247 | 53 | 201 | 0.0 | 0.0 | 0.00 | 0.00 | 0.00 | 71 | 1015.7 |
| 20260504060239 | 52 | 216 | 0.0 | 1.0 | 0.00 | 0.00 | 0.00 | 75 | 1016.3 |
| 20260504050737 | 52 | 89 | 0.0 | 0.0 | 0.00 | 0.00 | 0.00 | 75 | 1016.3 |
| 20260504050241 | 52 | 89 | 0.0 | 0.0 | 0.00 | 0.00 | 0.00 | 75 | 1016.3 |
| 20260504045737 | 52 | 89 | 0.0 | 0.0 | 0.00 | 0.00 | 0.00 | 75 | 1016.4 |
| 20260504044739 | 52 | 89 | 0.0 | 0.0 | 0.00 | 0.00 | 0.00 | 74 | 1016.4 |
| 20260504044237 | 52 | 89 | 0.0 | 0.0 | 0.00 | 0.00 | 0.00 | 74 | 1016.3 |
| 20260504043740 | 52 | 89 | 0.0 | 0.0 | 0.00 | 0.00 | 0.00 | 74 | 1016.4 |
| 20260504043240 | 52 | 89 | 0.0 | 0.0 | 0.00 | 0.00 | 0.00 | 74 | 1016.4 |
| 20260504042742 | 53 | 89 | 0.0 | 0.0 | 0.00 | 0.00 | 0.00 | 73 | 1016.4 |
| 20260504042237 | 53 | 89 | 0.0 | 0.0 | 0.00 | 0.00 | 0.00 | 73 | 1016.5 |
| 20260504041736 | 53 | 89 | 0.0 | 0.0 | 0.00 | 0.00 | 0.00 | 72 | 1016.6 |
| 20260504041229 | 53 | 89 | 0.0 | 0.0 | 0.00 | 0.00 | 0.00 | 72 | 1016.6 |
| 20260504040733 | 53 | 89 | 0.0 | 0.0 | 0.00 | 0.00 | 0.00 | 72 | 1016.5 |
| 20260504040237 | 53 | 89 | 0.0 | 0.0 | 0.00 | 0.00 | 0.00 | 71 | 1016.6 |
| 20260504035731 | 53 | 89 | 0.0 | 0.0 | 0.00 | 0.00 | 0.00 | 71 | 1016.5 |
| 20260504035232 | 53 | 89 | 0.0 | 0.0 | 0.00 | 0.00 | 0.00 | 70 | 1016.6 |
| 20260504034730 | 54 | 89 | 0.0 | 0.0 | 0.00 | 0.00 | 0.00 | 69 | 1016.6 |
| 20260504034229 | 54 | 89 | 0.0 | 0.0 | 0.00 | 0.00 | 0.00 | 69 | 1016.6 |
| 20260504033731 | 55 | 89 | 0.0 | 0.0 | 0.00 | 0.00 | 0.00 | 69 | 1016.5 |
| 20260504033230 | 55 | 89 | 0.0 | 0.0 | 0.00 | 0.00 | 0.00 | 68 | 1016.5 |
| 20260504032725 | 55 | 89 | 0.0 | 0.0 | 0.00 | 0.00 | 0.00 | 68 | 1016.5 |
| 20260504032225 | 56 | 89 | 0.0 | 0.0 | 0.00 | 0.00 | 0.00 | 66 | 1016.6 |
| 20260504031727 | 56 | 89 | 0.0 | 0.0 | 0.00 | 0.00 | 0.00 | 67 | 1016.5 |
| 20260504031224 | 56 | 89 | 0.0 | 0.0 | 0.00 | 0.00 | 0.00 | 67 | 1016.5 |
| 20260504030726 | 56 | 89 | 0.0 | 0.0 | 0.00 | 0.00 | 0.00 | 66 | 1016.5 |
| 20260504030226 | 56 | 89 | 0.0 | 0.0 | 0.00 | 0.00 | 0.00 | 65 | 1016.4 |
| 20260504025723 | 57 | 89 | 0.0 | 0.0 | 0.00 | 0.00 | 0.00 | 64 | 1016.5 |
| 20260504025220 | 57 | 89 | 0.0 | 1.0 | 0.00 | 0.00 | 0.00 | 64 | 1016.6 |
| 20260504024722 | 57 | 89 | 0.0 | 1.0 | 0.00 | 0.00 | 0.00 | 63 | 1016.5 |
| 20260504024219 | 57 | 89 | 0.0 | 1.0 | 0.00 | 0.00 | 0.00 | 64 | 1016.5 |
| 20260504023717 | 57 | 73 | 0.0 | 1.0 | 0.00 | 0.00 | 0.00 | 64 | 1016.5 |
| 20260504023220 | 57 | 206 | 0.0 | 0.0 | 0.00 | 0.00 | 0.00 | 64 | 1016.5 |
| 20260504022715 | 57 | 206 | 0.0 | 0.0 | 0.00 | 0.00 | 0.00 | 64 | 1016.6 |
| 20260504022216 | 57 | 207 | 0.0 | 0.0 | 0.00 | 0.00 | 0.00 | 61 | 1016.6 |
| 20260504021720 | 58 | 206 | 0.0 | 0.0 | 0.00 | 0.00 | 0.00 | 60 | 1016.5 |
| 20260504021217 | 58 | 207 | 0.0 | 0.0 | 0.00 | 0.00 | 0.00 | 60 | 1016.5 |
| 20260504015711 | 59 | 206 | 0.0 | 0.0 | 0.00 | 0.00 | 0.00 | 57 | 1016.2 |
| 20260504015217 | 60 | 206 | 0.0 | 0.0 | 0.00 | 0.00 | 0.00 | 56 | 1016.2 |
| 20260504014715 | 60 | 207 | 0.0 | 0.0 | 0.00 | 0.00 | 0.00 | 55 | 1016.1 |
| 20260504014217 | 60 | 206 | 0.0 | 0.0 | 0.00 | 0.00 | 0.00 | 53 | 1015.9 |
| 20260504013720 | 61 | 206 | 0.0 | 0.0 | 0.00 | 0.00 | 0.00 | 53 | 1015.8 |
| 20260504013213 | 61 | 207 | 0.0 | 0.0 | 0.00 | 0.00 | 0.00 | 52 | 1015.7 |
| 20260504012711 | 61 | 206 | 0.0 | 0.0 | 0.00 | 0.00 | 0.00 | 52 | 1015.7 |
| 20260504012213 | 62 | 207 | 0.0 | 0.0 | 0.00 | 0.00 | 0.00 | 51 | 1015.6 |
| 20260504011711 | 62 | 206 | 0.0 | 0.0 | 0.00 | 0.00 | 0.00 | 51 | 1015.5 |
| 20260504011214 | 62 | 207 | 0.0 | 0.0 | 0.00 | 0.00 | 0.00 | 50 | 1015.4 |
| 20260504010710 | 62 | 207 | 0.0 | 0.0 | 0.00 | 0.00 | 0.00 | 49 | 1015.4 |
| 20260504005208 | 63 | 207 | 0.0 | 0.0 | 0.00 | 0.00 | 0.00 | 47 | 1015.2 |
| 20260504004709 | 64 | 206 | 0.0 | 0.0 | 0.00 | 0.00 | 0.00 | 47 | 1015.2 |
| 20260504003206 | 67 | 207 | 0.0 | 1.0 | 0.00 | 0.00 | 0.00 | 43 | 1015.0 |
| 20260504002707 | 67 | 207 | 0.0 | 1.0 | 0.00 | 0.00 | 0.00 | 41 | 1015.0 |
| 20260504002205 | 68 | 208 | 0.0 | 2.0 | 0.00 | 0.00 | 0.00 | 40 | 1015.0 |
| 20260504001705 | 69 | 208 | 1.0 | 4.0 | 0.00 | 0.00 | 0.00 | 39 | 1015.0 |
| 20260504001205 | 69 | 206 | 1.0 | 5.0 | 0.00 | 0.00 | 0.00 | 38 | 1015.1 |
| 20260504000704 | 70 | 220 | 2.0 | 7.0 | 0.00 | 0.00 | 0.00 | 37 | 1015.2 |
| 20260504000200 | 70 | 221 | 3.0 | 7.0 | 0.00 | 0.00 | 0.00 | 37 | 1015.3 |
| 20260503235703 | 70 | 219 | 4.0 | 8.0 | 0.00 | 0.00 | 0.00 | 37 | 1015.4 |
| 20260503235201 | 70 | 217 | 4.0 | 8.0 | 0.00 | 0.00 | 0.00 | 36 | 1015.4 |
| 20260503234659 | 71 | 211 | 3.0 | 7.0 | 0.00 | 0.00 | 0.00 | 36 | 1015.4 |
| 20260503234152 | 71 | 212 | 3.0 | 7.0 | 0.00 | 0.00 | 0.00 | 35 | 1015.5 |
| 20260503233647 | 71 | 221 | 4.0 | 7.0 | 0.00 | 0.00 | 0.00 | 34 | 1015.5 |
| 20260503233149 | 71 | 223 | 4.0 | 8.0 | 0.00 | 0.00 | 0.00 | 33 | 1015.6 |
| 20260503232651 | 71 | 205 | 2.0 | 8.0 | 0.00 | 0.00 | 0.00 | 35 | 1015.6 |
| 20260503232146 | 72 | 188 | 1.0 | 5.0 | 0.00 | 0.00 | 0.00 | 33 | 1015.6 |
| 20260503231650 | 71 | 181 | 2.0 | 6.0 | 0.00 | 0.00 | 0.00 | 35 | 1015.7 |
| 20260503231151 | 71 | 94 | 4.0 | 8.0 | 0.00 | 0.00 | 0.00 | 35 | 1015.8 |
| 20260503230701 | 71 | 221 | 4.0 | 8.0 | 0.00 | 0.00 | 0.00 | 33 | 1015.8 |
| 20260503230147 | 71 | 290 | 5.0 | 11.0 | 0.00 | 0.00 | 0.00 | 34 | 1015.8 |
| 20260503225645 | 71 | 259 | 6.0 | 11.0 | 0.00 | 0.00 | 0.00 | 32 | 1015.9 |
| 20260503225147 | 71 | 217 | 5.0 | 10.0 | 0.00 | 0.00 | 0.00 | 33 | 1015.9 |
| 20260503224644 | 71 | 238 | 5.0 | 10.0 | 0.00 | 0.00 | 0.00 | 32 | 1015.9 |
| 20260503223649 | 71 | 205 | 4.0 | 9.0 | 0.00 | 0.00 | 0.00 | 32 | 1016.1 |
| 20260503222641 | 72 | 235 | 4.0 | 10.0 | 0.00 | 0.00 | 0.00 | 30 | 1016.1 |
| 20260503222138 | 71 | 248 | 5.0 | 10.0 | 0.00 | 0.00 | 0.00 | 30 | 1016.1 |
| 20260503221636 | 71 | 223 | 6.0 | 12.0 | 0.00 | 0.00 | 0.00 | 31 | 1016.2 |
| 20260503221138 | 71 | 270 | 8.0 | 14.0 | 0.00 | 0.00 | 0.00 | 31 | 1016.2 |
| 20260503220641 | 71 | 239 | 8.0 | 14.0 | 0.00 | 0.00 | 0.00 | 30 | 1016.3 |
| 20260503220136 | 72 | 257 | 4.0 | 14.0 | 0.00 | 0.00 | 0.00 | 30 | 1016.3 |
| 20260503215636 | 72 | 141 | 2.0 | 10.0 | 0.00 | 0.00 | 0.00 | 30 | 1016.3 |
| 20260503214637 | 71 | 193 | 6.0 | 13.0 | 0.00 | 0.00 | 0.00 | 30 | 1016.6 |
| 20260503214134 | 71 | 266 | 6.0 | 15.0 | 0.00 | 0.00 | 0.00 | 29 | 1016.6 |
| 20260503213637 | 72 | 244 | 6.0 | 15.0 | 0.00 | 0.00 | 0.00 | 29 | 1016.6 |
| 20260503213131 | 72 | 243 | 5.0 | 12.0 | 0.00 | 0.00 | 0.00 | 29 | 1016.7 |
| 20260503212636 | 72 | 222 | 4.0 | 12.0 | 0.00 | 0.00 | 0.00 | 29 | 1016.8 |
| 20260503212130 | 72 | 257 | 2.0 | 8.0 | 0.00 | 0.00 | 0.00 | 30 | 1016.9 |
| 20260503211630 | 72 | 233 | 3.0 | 11.0 | 0.00 | 0.00 | 0.00 | 29 | 1017.0 |
| 20260503211130 | 71 | 144 | 4.0 | 12.0 | 0.00 | 0.00 | 0.00 | 30 | 1017.0 |
| 20260503210628 | 71 | 144 | 6.0 | 14.0 | 0.00 | 0.00 | 0.00 | 30 | 1017.1 |
| 20260503210126 | 71 | 241 | 7.0 | 16.0 | 0.00 | 0.00 | 0.00 | 30 | 1017.2 |
| 20260503205628 | 71 | 216 | 6.0 | 16.0 | 0.00 | 0.00 | 0.00 | 30 | 1017.3 |
| 20260503205134 | 71 | 259 | 5.0 | 12.0 | 0.00 | 0.00 | 0.00 | 31 | 1017.3 |
| 20260503204630 | 71 | 331 | 6.0 | 14.0 | 0.00 | 0.00 | 0.00 | 30 | 1017.5 |
| 20260503203633 | 71 | 233 | 2.0 | 7.0 | 0.00 | 0.00 | 0.00 | 31 | 1017.6 |
| 20260503203132 | 71 | 205 | 1.0 | 7.0 | 0.00 | 0.00 | 0.00 | 31 | 1017.8 |
| 20260503202629 | 71 | 267 | 3.0 | 11.0 | 0.00 | 0.00 | 0.00 | 31 | 1017.8 |
| 20260503202129 | 70 | 192 | 4.0 | 11.0 | 0.00 | 0.00 | 0.00 | 31 | 1018.0 |
| 20260503201634 | 70 | 269 | 5.0 | 11.0 | 0.00 | 0.00 | 0.00 | 30 | 1018.1 |
| 20260503201125 | 70 | 265 | 6.0 | 11.0 | 0.00 | 0.00 | 0.00 | 31 | 1018.3 |
| 20260503200620 | 69 | 275 | 5.0 | 10.0 | 0.00 | 0.00 | 0.00 | 31 | 1018.3 |
| 20260503195624 | 69 | 264 | 5.0 | 13.0 | 0.00 | 0.00 | 0.00 | 30 | 1018.6 |
| 20260503195125 | 69 | 210 | 5.0 | 12.0 | 0.00 | 0.00 | 0.00 | 32 | 1018.8 |
| 20260503194620 | 69 | 236 | 5.0 | 12.0 | 0.00 | 0.00 | 0.00 | 32 | 1019.0 |
| 20260503194120 | 70 | 215 | 4.0 | 10.0 | 0.00 | 0.00 | 0.00 | 33 | 1019.1 |
| 20260503193624 | 70 | 252 | 3.0 | 10.0 | 0.00 | 0.00 | 0.00 | 31 | 1019.2 |
| 20260503193123 | 69 | 269 | 2.0 | 7.0 | 0.00 | 0.00 | 0.00 | 32 | 1019.2 |
| 20260503192120 | 69 | 79 | 3.0 | 10.0 | 0.00 | 0.00 | 0.00 | 32 | 1019.5 |
| 20260503191623 | 69 | 227 | 2.0 | 6.0 | 0.00 | 0.00 | 0.00 | 31 | 1019.7 |
| 20260503191121 | 68 | 348 | 4.0 | 14.0 | 0.00 | 0.00 | 0.00 | 32 | 1019.7 |
| 20260503190618 | 68 | 140 | 7.0 | 15.0 | 0.00 | 0.00 | 0.00 | 32 | 1019.9 |
| 20260503190111 | 68 | 281 | 8.0 | 15.0 | 0.00 | 0.00 | 0.00 | 33 | 1020.1 |
| 20260503185446 | 67 | 281 | 7.0 | 17.0 | 0.00 | 0.00 | 0.00 | 32 | 1020.1 |
| 20260503184940 | 67 | 252 | 5.0 | 17.0 | 0.00 | 0.00 | 0.00 | 32 | 1020.2 |
| 20260503184433 | 67 | 244 | 5.0 | 9.0 | 0.00 | 0.00 | 0.00 | 32 | 1020.3 |
| 20260503183923 | 67 | 268 | 6.0 | 14.0 | 0.00 | 0.00 | 0.00 | 33 | 1020.3 |
| 20260503183417 | 67 | 204 | 7.0 | 14.0 | 0.00 | 0.00 | 0.00 | 34 | 1020.4 |
| 20260503182911 | 67 | 307 | 6.0 | 14.0 | 0.00 | 0.00 | 0.00 | 35 | 1020.4 |
| 20260503182401 | 66 | 227 | 6.0 | 14.0 | 0.00 | 0.00 | 0.00 | 34 | 1020.6 |
| 20260503181352 | 67 | 238 | 6.0 | 16.0 | 0.00 | 0.00 | 0.00 | 35 | 1020.7 |
| 20260503180840 | 66 | 252 | 5.0 | 16.0 | 0.00 | 0.00 | 0.00 | 34 | 1020.7 |
| 20260503180336 | 67 | 243 | 5.0 | 13.0 | 0.00 | 0.00 | 0.00 | 34 | 1020.8 |
| 20260503175831 | 66 | 141 | 5.0 | 13.0 | 0.00 | 0.00 | 0.00 | 35 | 1020.9 |
| 20260503175320 | 66 | 293 | 6.0 | 13.0 | 0.00 | 0.00 | 0.00 | 35 | 1020.9 |
| 20260503174812 | 66 | 220 | 6.0 | 14.0 | 0.00 | 0.00 | 0.00 | 33 | 1021.1 |
| 20260503174305 | 65 | 172 | 7.0 | 14.0 | 0.00 | 0.00 | 0.00 | 32 | 1021.2 |
| 20260503173757 | 66 | 217 | 6.0 | 13.0 | 0.00 | 0.00 | 0.00 | 31 | 1021.2 |